Weather in Yelan

Russia / Sverdlovsk Oblast     56°52′27″N   64°02′20″E
temp.,
°C
wind,
m/s
gust,
m/s
humid.,
%
clouds,
%
prec.,
mm/h
press.,
hPa
HPBL,
m
11 april, sun
sun1123:00+2s412915 0.0 1037311
02:00+1s4139355 0.0 1036322
05:00+1s41395100 0.0 1037354
08:00+3ssw51493100 0.0 1037383
11:00+4ssw61394100 0.0 1036418
14:00+6ssw61390100 0.0 1035487
17:00+7ssw6148873 0.0 1034483
20:00+5ssw5149245 0.0 1033369
12 april, mon
mon1223:00+4sw4119367 0.0 1032249
02:00+4sw3895100 0.0 1032145
05:00+5wsw2696100 0.1 1033134
08:00+6w279899 0.5 1034173
11:00+9nw3579100 0.5 1035612
14:00+11nnw4561100 0.0 1036866
17:00+10nnw3568100 0.0 10371027
20:00+6nnw2577100 0.0 103899
13 april, tue
tue1323:00+4nnw22815 0.0 103915
02:00+3n11795 0.0 104010
05:00+2nnw11760 0.0 104110
08:00+5wsw11680 0.0 104185
11:00+9sw23560 0.0 1040627
14:00+11sw34475 0.0 1039890
17:00+12sw34480 0.0 1038848
20:00+7ssw35714 0.0 103675
14 april, wed
wed1423:00+6ssw38785 0.0 1035140
02:00+5sw310818 0.0 1033192
05:00+5sw3118697 0.0 1033201
08:00+7sw3983100 0.0 1032264
11:00+13wsw477129 0.0 1030508
14:00+16wsw46606 0.0 10281035
17:00+17w365999 0.0 10261280
20:00+13sw228054 0.0 102631
15 april, thu
thu1523:00+11wsw248887 0.0 102561
02:00+9w228838 0.0 102431
05:00+8wsw25905 0.0 102477
08:00+10w387224 0.0 1023241
11:00+15w464529 0.0 1022789
14:00+17w473660 0.0 10201320
17:00+17w463827 0.0 10191417
20:00+12wsw22585 0.0 101822